User: anonymous   Login
Location: Canyam�s
(41.5996°N, 2.4450°E)
Time: 12:08:04
(UTC+00:00)
Language:

Cosmos 1908 - Orbit

View from above orbital plane
View from above orbital plane
View from above satellite
View from above satellite

Ground track
Ground track

The orbit data is extracted from the following two-line orbital elements,

1 18748U 88001A   20226.88410639 +.00000083 +00000-0 +27610-5 0  9998
2 18748 082.4735 001.1402 0012510 215.7839 144.2556 15.14956854780113
Epoch (UTC): 13 August 2020 21:13:06
Eccentricity: 0.0012510
inclination: 82.4735°
perigee height: 512 km
apogee height: 530 km
right ascension of ascending node: 1.1402°
argument of perigee: 215.7839°
revolutions per day: 15.14956854
mean anomaly at epoch: 144.2556°
orbit number at epoch: 78011

The dashed part of the orbit path shows where the satellite is in the earth's shadow,  

DLR